Weather History for KFSM - December, 2012

Change the Weather History Date:

Sunday, December 23, 2012

  Actual Average Record
Temperature  
Mean Temperature 54 °F 40 °F  
Max Temperature 69 °F 50 °F 75 °F (1889)
Min Temperature 39 °F 30 °F -5 °F (1989)
Degree Days  
Heating Degree Days 11 25  
Month to date heating degree days 328 529  
Since 1 July heating degree days 840 1094  
Growing Degree Days 4 (Base 50)    
Moisture  
Dew Point 40 °F    
Average Humidity 64    
Maximum Humidity 83    
Minimum Humidity 45    
Precipitation  
Precipitation 0.00 in 0.10 in 3.05 in (1932)
Month to date precipitation 1.36 2.56  
Year to date precipitation 32.55 44.73  
Sea Level Pressure  
Sea Level Pressure 29.88 in    
Wind  
Wind Speed 3 mph (North)    
Max Wind Speed 14 mph    
Max Gust Speed 17 mph    
Visibility 10 miles    
Events      
T = Trace of Precipitation, MM = Missing Value Source: NWS Daily Summary

Daily Weather History Graph

Daily Weather History Graph

Search for Another Location

Airport or City:

Trip Planner

Search our weather history database for the weather conditions in past years. The results will help you decide how hot, cold, wet, or windy it might be!

Date:

Astronomy

Dec. 23, 2012 Rise Set
Actual Time 7:23 AM CST 5:10 PM CST
Civil Twilight 6:55 AM CST 5:38 PM CST
Nautical Twilight 6:23 AM CST 6:10 PM CST
Astronomical Twilight 5:52 AM CST 6:41 PM CST
Moon 1:57 PM CST (12/23) 3:11 AM CST (12/23)
Length of Visible Light 10h 43m
Length of Day
9h 46m
Waxing Gibbous, 82% of the Moon is Illuminated
Dec 23
Waxing Gibbous
Dec 28
Full
Jan 4
Last Quarter
Jan 11
New
Jan 18
First Quarter

Hourly Weather History & Observations

Time (CST) Temp. Windchill Dew Point Humidity Pressure Visibility Wind Dir Wind Speed Gust Speed Precip Events Conditions
12:53 AM 42.1 °F - 28.9 °F 60% 30.01 in 10.0 mi Calm Calm - N/A   Clear
1:53 AM 42.1 °F 39.2 °F 30.0 °F 62% 29.99 in 10.0 mi NE 4.6 mph - N/A   Clear
2:53 AM 41.0 °F - 30.9 °F 67% 29.97 in 10.0 mi Calm Calm - N/A   Clear
3:53 AM 42.1 °F 40.2 °F 30.9 °F 65% 29.97 in 10.0 mi NE 3.5 mph - N/A   Clear
4:53 AM 42.1 °F 39.2 °F 30.9 °F 65% 29.95 in 10.0 mi East 4.6 mph - N/A   Clear
5:53 AM 42.1 °F 39.2 °F 30.9 °F 65% 29.95 in 10.0 mi NE 4.6 mph - N/A   Clear
6:53 AM 39.9 °F - 30.9 °F 70% 29.96 in 10.0 mi Calm Calm - N/A   Clear
7:53 AM 41.0 °F - 30.9 °F 67% 29.96 in 10.0 mi Calm Calm - N/A   Clear
8:53 AM 46.0 °F - 35.1 °F 66% 29.96 in 10.0 mi Calm Calm - N/A   Clear
9:53 AM 52.0 °F - 37.9 °F 59% 29.95 in 10.0 mi Calm Calm - N/A   Clear
10:53 AM 60.1 °F - 41.0 °F 49% 29.91 in 10.0 mi NE 6.9 mph - N/A   Clear
11:53 AM 64.0 °F - 45.0 °F 50% 29.87 in 10.0 mi NE 9.2 mph - N/A   Mostly Cloudy
12:53 PM 68.0 °F - 46.9 °F 47% 29.83 in 10.0 mi SSW 8.1 mph 16.1 mph N/A   Partly Cloudy
1:53 PM 66.9 °F - 46.9 °F 49% 29.81 in 10.0 mi Variable 3.5 mph - N/A   Partly Cloudy
2:53 PM 66.9 °F - 46.0 °F 47% 29.80 in 10.0 mi WSW 4.6 mph - N/A   Partly Cloudy
3:53 PM 66.9 °F - 46.0 °F 47% 29.79 in 10.0 mi SW 6.9 mph - N/A   Clear
4:53 PM 64.0 °F - 46.0 °F 52% 29.80 in 10.0 mi SW 4.6 mph - N/A   Clear
5:53 PM 60.1 °F - 46.9 °F 62% 29.82 in 10.0 mi Calm Calm - N/A   Overcast
6:53 PM 59.0 °F - 46.9 °F 64% 29.81 in 10.0 mi Calm Calm - N/A   Scattered Clouds
7:53 PM 55.9 °F - 46.9 °F 72% 29.81 in 10.0 mi Calm Calm - N/A   Overcast
8:53 PM 55.0 °F - 46.9 °F 74% 29.82 in 10.0 mi Calm Calm - N/A   Overcast
9:53 PM 52.0 °F - 46.0 °F 80% 29.81 in 10.0 mi WSW 8.1 mph - N/A   Clear
10:53 PM 53.1 °F - 45.0 °F 74% 29.83 in 10.0 mi Calm Calm - N/A   Mostly Cloudy
11:53 PM 48.9 °F - 42.1 °F 77% 29.84 in 10.0 mi West 9.2 mph - N/A   Scattered Clouds